Inverness, FL

5:52 AM EDT on July 30, 2016 (GMT -0400)
Inverness

Weather History for KINF - July, 2013

Change the Weather History Date:

Thursday, July 4, 2013

  Actual Average (KOCF) Record (KOCF)
Temperature  
Mean Temperature 78 °F -  
Max Temperature 86 °F 88 °F 96 °F (1998)
Min Temperature 71 °F 69 °F 68 °F (2000)
Cooling Degree Days 14    
Growing Degree Days 28 (Base 50)    
Moisture  
Dew Point 72 °F    
Average Humidity 89    
Maximum Humidity 100    
Minimum Humidity 62    
Precipitation  
Precipitation 0.33 in - - ()
Sea Level Pressure  
Sea Level Pressure 30.13 in    
Wind  
Wind Speed 2 mph (SE)    
Max Wind Speed 14 mph    
Max Gust Speed 18 mph    
Visibility 7 miles    
Events Rain , Thunderstorm    
Averages and records for this station are not official NWS values.
T = Trace of Precipitation, MM = Missing Value Source: NWS Daily Summary

Daily Weather History Graph

Daily Weather History Graph

Search for Another Location

Airport or City:

Trip Planner

Search our weather history database for the weather conditions in past years. The results will help you decide how hot, cold, wet, or windy it might be!

Date:

Astronomy

Jul. 04, 2013 Rise Set
Actual Time 6:35 AM EDT 8:31 PM EDT
Civil Twilight 6:09 AM EDT 8:58 PM EDT
Nautical Twilight 5:36 AM EDT 9:30 PM EDT
Astronomical Twilight 5:02 AM EDT 10:05 PM EDT
Moon 3:45 AM EDT (7/4) 5:39 PM EDT (7/4)
Length of Visible Light 14h 49m
Length of Day
13h 55m
Waning Crescent, 11% of the Moon is Illuminated
Jul 4
Waning Crescent
Jul 8
New
Jul 15
First Quarter
Jul 22
Full
Jul 29
Last Quarter

Hourly Weather History & Observations

Time (EDT) Temp. Heat Index Dew Point Humidity Pressure Visibility Wind Dir Wind Speed Gust Speed Precip Events Conditions
12:15 AM 73.4 °F - 71.6 °F 94% 30.14 in 7.0 mi Calm Calm - N/A   Mostly Cloudy
12:35 AM 71.6 °F - 71.6 °F 100% 30.15 in 7.0 mi Calm Calm - N/A   Scattered Clouds
12:55 AM 71.6 °F - 71.6 °F 100% 30.15 in 7.0 mi Calm Calm - N/A   Mostly Cloudy
1:15 AM 71.6 °F - 71.6 °F 100% 30.14 in 10.0 mi Calm Calm - N/A   Mostly Cloudy
1:35 AM 73.4 °F - 71.6 °F 94% 30.13 in 7.0 mi Calm Calm - N/A   Mostly Cloudy
1:55 AM 71.6 °F - 71.6 °F 100% 30.12 in 7.0 mi Calm Calm - N/A   Scattered Clouds
2:15 AM 71.6 °F - 71.6 °F 100% 30.12 in 7.0 mi Calm Calm - N/A   Clear
2:35 AM 71.6 °F - 71.6 °F 100% 30.11 in 10.0 mi Calm Calm - N/A   Clear
2:55 AM 71.6 °F - 71.6 °F 100% 30.11 in 10.0 mi Calm Calm - N/A   Clear
3:15 AM 71.6 °F - 71.6 °F 100% 30.11 in 10.0 mi Calm Calm - N/A   Clear
3:35 AM 71.6 °F - 71.6 °F 100% 30.11 in 7.0 mi Calm Calm - N/A   Clear
3:55 AM 71.6 °F - 71.6 °F 100% 30.11 in 7.0 mi Calm Calm - N/A   Clear
4:15 AM 71.6 °F - 71.6 °F 100% 30.10 in 10.0 mi Calm Calm - N/A   Clear
4:35 AM 71.6 °F - 71.6 °F 100% 30.10 in 7.0 mi Calm Calm - N/A   Clear
4:55 AM 71.6 °F - 71.6 °F 100% 30.10 in 10.0 mi Calm Calm - N/A   Clear
5:15 AM 71.6 °F - 71.6 °F 100% 30.10 in 7.0 mi Calm Calm - N/A   Clear
5:35 AM 71.6 °F - 71.6 °F 100% 30.10 in 10.0 mi Calm Calm - N/A   Clear
5:55 AM 71.6 °F - 71.6 °F 100% 30.11 in 7.0 mi Calm Calm - N/A   Clear
6:15 AM 71.6 °F - 71.6 °F 100% 30.10 in 7.0 mi Calm Calm - N/A   Clear
6:35 AM 71.6 °F - 71.6 °F 100% 30.11 in 7.0 mi Calm Calm - N/A   Clear
6:55 AM 71.6 °F - 71.6 °F 100% 30.11 in 5.0 mi Calm Calm - N/A   Scattered Clouds
7:15 AM 71.6 °F - 71.6 °F 100% 30.11 in 7.0 mi Calm Calm - N/A   Scattered Clouds
7:35 AM 73.4 °F - 71.6 °F 94% 30.12 in 7.0 mi SE 4.6 mph - N/A   Scattered Clouds
7:55 AM 73.4 °F - 73.4 °F 100% 30.13 in 7.0 mi ESE 3.5 mph - N/A   Clear
8:15 AM 75.2 °F - 73.4 °F 94% 30.13 in 5.0 mi ESE 3.5 mph - N/A   Clear
8:35 AM 77.0 °F - 73.4 °F 89% 30.14 in 7.0 mi ESE 8.1 mph - N/A   Clear
8:55 AM 78.8 °F - 73.4 °F 83% 30.13 in 7.0 mi ESE 8.1 mph - N/A   Clear
9:15 AM 78.8 °F - 73.4 °F 83% 30.13 in 7.0 mi SE 8.1 mph - N/A   Clear
9:35 AM 80.6 °F 85.4 °F 73.4 °F 79% 30.14 in 7.0 mi SE 8.1 mph - N/A   Scattered Clouds
9:55 AM 80.6 °F 85.4 °F 73.4 °F 79% 30.14 in 7.0 mi SSE 9.2 mph - N/A   Mostly Cloudy
10:15 AM 82.4 °F 88.2 °F 73.4 °F 74% 30.14 in 7.0 mi SE 10.4 mph - N/A   Mostly Cloudy
10:35 AM 82.4 °F 88.2 °F 73.4 °F 74% 30.14 in 7.0 mi SSE 13.8 mph 17.3 mph N/A   Overcast
10:55 AM 84.2 °F 90.9 °F 73.4 °F 70% 30.14 in 10.0 mi SE 12.7 mph 17.3 mph N/A   Mostly Cloudy
11:15 AM 84.2 °F 90.9 °F 73.4 °F 70% 30.14 in 7.0 mi SSE 8.1 mph 18.4 mph N/A   Mostly Cloudy
11:35 AM 86.0 °F 93.4 °F 73.4 °F 66% 30.14 in 7.0 mi SSE 12.7 mph 17.3 mph N/A   Scattered Clouds
12:15 PM 86.0 °F 91.8 °F 71.6 °F 62% 30.14 in 7.0 mi SSE 13.8 mph 18.4 mph N/A   Scattered Clouds
12:55 PM 86.0 °F 91.8 °F 71.6 °F 62% 30.14 in 7.0 mi SSE 9.2 mph 18.4 mph N/A   Mostly Cloudy
1:15 PM 82.4 °F 88.2 °F 73.4 °F 74% 30.14 in 7.0 mi South 8.1 mph - N/A   Scattered Clouds
1:35 PM 86.0 °F 93.4 °F 73.4 °F 66% 30.13 in 7.0 mi South 8.1 mph - N/A   Scattered Clouds
1:55 PM 86.0 °F 93.4 °F 73.4 °F 66% 30.12 in 7.0 mi SSE 9.2 mph - N/A   Scattered Clouds
2:15 PM 86.0 °F 91.8 °F 71.6 °F 62% 30.12 in 7.0 mi SSE 10.4 mph 16.1 mph N/A Thunderstorm Scattered Clouds
3:15 PM 77.0 °F - 73.4 °F 89% 30.12 in 7.0 mi Calm Calm - N/A   Clear
3:35 PM 78.8 °F - 73.4 °F 83% 30.13 in 7.0 mi SSW 8.1 mph - N/A Thunderstorm Scattered Clouds
3:55 PM 75.2 °F - 68.0 °F 78% 30.13 in 10.0 mi East 3.5 mph - N/A Rain , Thunderstorm Light Thunderstorms and Rain
4:15 PM 77.0 °F - 68.0 °F 74% 30.11 in 5.0 mi ENE 3.5 mph - N/A   Haze
4:35 PM 77.0 °F - 69.8 °F 78% 30.11 in 7.0 mi Calm Calm - N/A   Clear
4:55 PM 77.0 °F - 69.8 °F 78% 30.11 in 7.0 mi Calm Calm - N/A   Clear
5:15 PM 80.6 °F 84.6 °F 71.6 °F 74% 30.11 in 7.0 mi Calm Calm - N/A   Clear
5:35 PM 80.6 °F 84.6 °F 71.6 °F 74% 30.10 in 10.0 mi Calm Calm - N/A   Clear
6:55 PM 71.6 °F - 69.8 °F 94% 30.15 in 10.0 mi Calm Calm - 0.11 in Rain , Thunderstorm Light Thunderstorms and Rain
7:35 PM 71.6 °F - 69.8 °F 94% 30.15 in 7.0 mi Calm Calm - N/A   Mostly Cloudy
7:55 PM 71.6 °F - 69.8 °F 94% 30.15 in 7.0 mi Calm Calm - N/A   Mostly Cloudy
8:35 PM 71.6 °F - 71.6 °F 100% 30.16 in 7.0 mi Calm Calm - N/A   Overcast
8:55 PM 71.6 °F - 69.8 °F 94% 30.17 in 3.0 mi Calm Calm - 0.20 in Rain , Thunderstorm Heavy Thunderstorms and Rain
9:15 PM 71.6 °F - 69.8 °F 94% 30.18 in 7.0 mi Calm Calm - N/A   Scattered Clouds
9:35 PM 71.6 °F - 69.8 °F 94% 30.18 in 7.0 mi Calm Calm - 0.01 in   Clear
9:55 PM 71.6 °F - 71.6 °F 100% 30.17 in 5.0 mi Calm Calm - 0.01 in   Scattered Clouds
10:15 PM 71.6 °F - 71.6 °F 100% 30.18 in 7.0 mi Calm Calm - N/A   Scattered Clouds
10:35 PM 71.6 °F - 71.6 °F 100% 30.17 in 7.0 mi Calm Calm - N/A   Mostly Cloudy
10:55 PM 71.6 °F - 71.6 °F 100% 30.18 in 5.0 mi ESE 3.5 mph - 0.01 in Rain Rain
11:15 PM 71.6 °F - 71.6 °F 100% 30.17 in 7.0 mi Calm Calm - N/A   Mostly Cloudy
11:35 PM 71.6 °F - 69.8 °F 94% 30.17 in 7.0 mi Calm Calm - N/A   Mostly Cloudy
11:55 PM 71.6 °F - 69.8 °F 94% 30.17 in 7.0 mi Calm Calm - N/A   Scattered Clouds